Regional Weather Roundup
Issued by NWS Wakefield, VA

Home | Current Version | Previous Version | Graphics & Text | Print | Product List | Glossary On
Versions: 1 2 3 4 5 6 7 8 9 10 11 12 13 14 15 16 17 18 19 20 21 22 23 24 25 26 27 28 29 30 31 32 33 34 35 36 37 38 39 40 41 42 43 44 45 46 47 48 49 50
000
ASUS41 KAKQ 282310
RWRAKQ

REGIONAL WEATHER ROUNDUP
NATIONAL WEATHER SERVICE WAKEFIELD VA
600 PM EST SAT FEB 28 2015

Note: "fair" indicates few or no clouds below 12,000 feet with no
significant weather and/or obstructions to visibility. * = Denotes
station may not report precipitation (e.g., rain,snow,etc.),
thunder or fog.

VAZ042-051-052>054-056-010000-
NORTHERN VIRGINIA

CITY           SKY/WX    TMP DP  RH WIND       PRES   REMARKS
WASH NATIONAL  PTCLDY    30   4  33 S3        30.77S
DULLES         PTCLDY    27   0  31 CALM      30.75S
FORT BELVOIR   CLEAR     29   2  31 S3        30.76S
QUANTICO       CLEAR     29   7  39 CALM      30.78S
FREDERICKSBRG* CLEAR     32   9  37 CALM      30.75F
STAFFORD*      CLEAR     28   3  34 E6        30.79S
WARRENTON      CLEAR     30  16  55 CALM      30.73F
CULPEPER*      CLEAR     28   9  43 CALM      30.74F
MANASSAS*      CLEAR     28   5  37 CALM      30.75F
LEESBURG*      CLOUDY    30   7  37 CALM      30.75S
WINCHESTER     PTCLDY    28   0  29 E5        30.69F
FRONT ROYAL*   FAIR      28   7  40 E5        30.68F
LURAY*         FAIR      32  14  47 CALM      30.66S
$$

VAZ048-049-060>072-079>083-010000-
CENTRAL AND SOUTH CENTRAL VIRGINIA

CITY           SKY/WX    TMP DP  RH WIND       PRES   REMARKS
RICHMOND       MOCLDY    32  10  40 N5        30.75R
CHESTERFIELD*  FAIR      32   3  29 CALM      30.75R
PETERSBURG*    MOCLDY    33  10  38 CALM      30.75R
HANOVER        CLEAR     30  11  45 CALM      30.76R
TAPPAHANNOCK*  CLEAR     30   3  31 NE3       30.78R
QUINTON*       FAIR      31  11  43 CALM      30.76R
CHARLOTTSVILLE CLEAR     30   7  37 S3        30.70F
GORDONSVILLE*  FAIR      29   7  40 NE3       30.72S
ORANGE*        CLEAR     30  10  43 CALM      30.74F
LOUISA*        CLEAR     30   9  40 NE3       30.71S
BUMPASS*       FAIR      31   9  40 CALM      30.73S
FARMVILLE*     PTCLDY    36  10  33 CALM      30.71S
CREWE*         MOCLDY    32   7  34 CALM      30.72S
FORT PICKETT*  MOCLDY    32  11  42 E3        30.72S
CHASE CITY*    FAIR      36  14  40 CALM      30.70S
CLARKSVILLE*   FAIR      34  12  40 CALM      30.70S
SOUTH HILL*    CLEAR     33  12  42 CALM      30.77S
LAWRENCEVILLE* FAIR      33  10  38 CALM      30.71S
EMPORIA*       CLEAR     34  12  40 CALM      30.75R
$$

VAZ088>098-010000-
SOUTHEAST VIRGINIA

CITY           SKY/WX    TMP DP  RH WIND       PRES   REMARKS
NORFOLK        CLEAR     28  17  63 NE7       30.76S
VIRGINIA BEACH MOCLDY    29  16  58 NE7       30.76R
NORFOLK NAVAL  MOCLDY    30  18  60 NE7       30.78S
WEST POINT*    CLEAR     31  13  47 E7        30.79R
SALUDA*        FAIR      25   9  50 CALM      30.78R
NEWPORT NEWS   CLEAR     29  15  56 E7        30.77R
LANGLEY AFB    CLEAR     26  17  67 NE6       30.77S
FORT EUSTIS    CLEAR     29  13  50 VRB6      30.75R
WILLIAMSBURG*  CLEAR     30  19  64 CALM      30.77R
HR EXEC AP*    FAIR      28  16  59 NE6       30.78S
FRANKLIN*      CLEAR     30  17  58 E9        30.76R
WAKEFIELD      CLEAR     31  15  52 E5        30.75R
$$

VAZ020-022-025-037-045-010000-
WEST CENTRAL AND SOUTHWEST VIRGINIA

CITY           SKY/WX    TMP DP  RH WIND       PRES   REMARKS
STAUNTON*      CLEAR     30  10  43 S5        30.66F
WAYNESBORO*    FAIR      27  10  48 SE7       30.63S
HOT SPRINGS VA PTCLDY    22  10  60 S3        30.47R
LYNCHBURG      CLOUDY    31  11  43 CALM      30.69S
DANVILLE       CLEAR     34  12  40 E5        30.69F
SOUTH BOSTON*  FAIR      35  10  35 CALM      30.70S
MARTINSVILLE   CLEAR     34  16  47 E3        30.68S
ROANOKE        CLOUDY    31  13  47 E8        30.66F
BLACKSBURG     CLOUDY    30  15  53 E6        30.60S
DUBLIN*        CLOUDY    34  21  59 NE6       30.58R
MARION*        PTCLDY    36  21  56 E6        30.54S
HILLSVILLE*    PTCLDY    31  17  57 S5        30.54S
RICHLANDS*     FAIR      39  19  43 CALM      30.47F
WISE*          MOCLDY    41  21  45 CALM      30.47S
ABINGDON*      CLEAR     41  23  47 E9        30.48F
$$

MDZ021>025-VAZ099-100-010000-
SOUTHERN MARYLAND AND THE DELMARVA PENINSULA

CITY           SKY/WX    TMP DP  RH WIND       PRES   REMARKS
PATUXENT RIVER PTCLDY    25   8  48 NE5       30.78R
BAY BRIDGE APT   N/A     28   1  31 E3        30.78F
LEONARDTOWN    CLEAR     27   9  46 CALM      30.79R
DOVER          CLEAR     24  11  57 E2        30.78R
GEORGETOWN     CLEAR     24  10  55 NE6       30.78R
EASTON         CLEAR     28   7  40 CALM      30.81S
CAMBRIDGE      CLEAR     30   9  40 CALM      30.78R
SALISBURY      FAIR      31   6  35 CALM      30.77R
OCEAN CITY     CLEAR     25   9  50 E5        30.78S
WALLOPS ISLAND CLEAR     25  15  66 E7        30.78S
ACCOMACK*      CLEAR     28  14  54 NE7       30.77S
$$

NCZ012>017-030>032-010000-
NORTH CENTRAL AND EASTERN NORTH CAROLINA

CITY           SKY/WX    TMP DP  RH WIND       PRES   REMARKS
ROANOKE RAPIDS FAIR      34  14  44 CALM      30.72S
RALEIGH        MOCLDY    34  16  47 NE7       30.69R
ELIZABETH CITY CLEAR     30  20  66 NE12      30.75S WCI  20
AHOSKIE*       CLEAR     34  16  47 NE3       30.74R
EDENTON*       CLEAR     33  20  59 NE7       30.73S
CURRITUCK*     CLEAR     31  19  61 NE9       30.76R
KILL DEVIL HLS CLEAR     32  24  70 N7        30.72R
MANTEO         CLEAR     32  25  74 N13G20    30.73S WCI  22
CAPE HATTERAS  PTCLDY    34  27  75 N12G24    30.69R
TARBORO*       FAIR      37  16  43 NE3       30.73R
GOLDSBORO      PTCLDY    38  24  58 NE6       30.67S
WASHINGTON     CLEAR     36  18  49 NE6       30.71S
GREENVILLE     CLEAR     37  19  48 NE6       30.70R
NEW BERN       PTCLDY    37  18  46 NE13      30.71R
WILMINGTON     MOCLDY    43  24  47 NE13      30.64R
$$

VAZ048-010000-
ELSEWHERE

CITY           SKY/WX    TMP DP  RH WIND       PRES   REMARKS
HARRISBURG PA  PTCLDY    20   5  52 S3        30.74R
BALTIMORE      PTCLDY    26   4  38 SE5       30.75S
ANNAPOLIS      CLEAR     24   6  46 SE3       30.78S
ANDREWS AFB    CLEAR     27   9  48 SE8       30.74S
PHILADELPHIA   MOCLDY    30   2  30 S5        30.77R
HENDERSON NC   CLEAR     33   9  35 CALM      30.70S
GREENSBORO     MOCLDY    34  16  47 NE7       30.64S
ROCKY MOUNT    CLEAR     36  17  46 NE5       30.71S
$$

VAZ100-010000-
MARINE

STATION/POSITION TIME  TEMP    WIND        PRES    WAVE   SWELL
                       AIR SEA DIR/SP/G            HT/PER HT/PER
                 (UTC) (F)     (DEG/KT/KT) (MB)    (FT/S) (FT/S)
BRANDYWINE LGT   2300   26 29  310/  2/  3 1042.3S
CAPE MAY NJ      2300   26 33  290/  5/  6 1041.8S
LEWES DE         2300   26 30   10/  2/  3 1042.1F
15NM E FENWICK I 2300   26 34              1042.0F   3/10
OCEAN-CITY-INLET 2300   26 32   70/  5/  7 1041.8R
WACHAPREAGUE VA  2300   27 33   50/  7/  9 1041.9R
THOMAS POINT MD  2300   26 32  130/  5/  6 1043.2F
COVE POINT MD    2300   24      20/  3/  4 1042.2R
SOLOMONS ISLAND  2300      34                N/A
BISHOPS HEAD MD  2300   27 33  300/  4/  5 1041.7R
CAMBRIDGE MD     2300   26 32   20/  1/  2 1042.0F
LEWISETTA VA     2300   26 34     CALM     1042.1S
RAPPAHANNOCK LGT 2300           10/  7/  8 1042.3R
STINGRAY PT      2300   26      50/  6/  8   N/A
YORK RVR RNG VA  2300   27      60/  7/  8 1041.3R
YORKTOWN VA      2300   29 33   60/  8/  9 1041.6R
DOMINION TERM VA 2300   28      70/  7/  9 1041.8R
KIPTOPEKE VA     2300      37   60/  3/  7   N/A
CHES BAY BRIDGE  2300   28 33   50/  9/ 11 1041.4R
CAPE HENRY VA    2300   28      30/ 10/ 12 1040.3S
CHESAPEAKE LGHT  2200   29      40/ 13/ 14 1042.0S
WILLOUBY STN VA  2300   27      40/  9/ 10 1042.2R
S CRANEY ISL VA  2300           50/  8/ 10 1041.7S
CAPE HENRY BUOY  2300      35                N/A     4/10   2/11
1ST LANDING BUOY 2300   29      50/ 10/ 12 1041.3R
OFFSHORE WE BUOY 2300      37                N/A     4/10   3/10
64NM E OF VA BCH 2300   40 60   20/ 16/ 19 1039.7R   5/ 6   3/ 8
DUCK PIER NC     2300   32 35   30/ 18/ 19 1039.9S
44100 DUCK FRF   2300      37                N/A     5/ 6   2/11
44056 DUCK FRF   2300      34                N/A     5/ 6   2/11
OREGON INLET NC  2300   34 39  360/ 11/ 17 1040.1S
HATTERAS NC      2300   35 40   20/ 22/ 25 1039.3S
CAPE LOOKOUT NC  2300   37      20/ 17/ 21 1038.4R
$$



USA.gov is the U.S. government's official web portal to all federal, state and local government web resources and services.